Canby, MN

11:36 AM CST on November 20, 2019 (GMT -0600)
Canby

Weather History for KCNB - October, 2019

Change the Weather History Date:

Sunday, October 13, 2019

  Actual Average (WUND) Record (WUND)
Temperature  
Mean Temperature 36 °F -  
Max Temperature 41 °F - - (-1)
Min Temperature 30 °F - - (-1)
Degree Days  
Heating Degree Days 30    
Moisture  
Dew Point 30 °F    
Average Humidity 78    
Maximum Humidity 93    
Minimum Humidity 65    
Precipitation  
Precipitation 0.00 in - - ()
Sea Level Pressure  
Sea Level Pressure 29.85 in    
Wind  
Wind Speed 15 mph (NW)    
Max Wind Speed 20 mph    
Max Gust Speed 26 mph    
Visibility 10 miles    
Events      
Averages and records for this station are not official NWS values.
T = Trace of Precipitation, MM = Missing Value Source: NWS Daily Summary

Daily Weather History Graph

Daily Weather History Graph

Search for Another Location

Airport or City:

Astronomy

Oct. 13, 2019 Rise Set
Actual Time 7:37 AM CDT 6:44 PM CDT
Civil Twilight 7:08 AM CDT 7:13 PM CDT
Nautical Twilight 6:34 AM CDT 7:47 PM CDT
Astronomical Twilight 6:00 AM CDT 8:21 PM CDT
Moon 7:09 PM CDT (10/13) 7:09 AM CDT (10/13)
Length of Visible Light 12h 05m
Length of Day
11h 06m
Full, 100% of the Moon is Illuminated
Oct 13
Full
Oct 13
Full
Oct 21
Last Quarter
Oct 27
New
Nov 4
First Quarter

Hourly Weather History & Observations

Time (CDT) Temp. Windchill Dew Point Humidity Pressure Visibility Wind Dir Wind Speed Gust Speed Precip Events Conditions
12:02 AM 35.6 °F 25.2 °F 28.4 °F 75% 29.73 in 10.0 mi NW 18.4 mph 23.0 mph N/A   Overcast
12:22 AM 35.6 °F 26.2 °F 28.4 °F 75% 29.73 in 10.0 mi NW 15.0 mph 21.9 mph N/A   Overcast
12:42 AM 35.6 °F 25.9 °F 28.4 °F 75% 29.73 in 10.0 mi NW 16.1 mph 21.9 mph N/A   Overcast
1:02 AM 35.6 °F 25.5 °F 30.2 °F 81% 29.73 in 10.0 mi NW 17.3 mph 21.9 mph N/A   Overcast
1:22 AM 35.6 °F 25.5 °F 30.2 °F 81% 29.73 in 10.0 mi NW 17.3 mph 26.5 mph N/A   Overcast
1:42 AM 35.6 °F 26.2 °F 30.2 °F 81% 29.73 in 10.0 mi NW 15.0 mph 21.9 mph N/A   Overcast
2:02 AM 35.6 °F 25.9 °F 30.2 °F 81% 29.73 in 10.0 mi NW 16.1 mph 21.9 mph N/A   Overcast
2:22 AM 33.8 °F 23.5 °F 30.2 °F 87% 29.74 in 10.0 mi NW 16.1 mph 21.9 mph N/A   Overcast
2:42 AM 33.8 °F 24.3 °F 30.2 °F 87% 29.74 in 10.0 mi NW 13.8 mph - N/A   Overcast
3:02 AM 33.8 °F 24.3 °F 28.4 °F 81% 29.74 in 10.0 mi NW 13.8 mph - N/A   Overcast
3:22 AM 35.6 °F 25.9 °F 28.4 °F 75% 29.75 in 10.0 mi NW 16.1 mph 19.6 mph N/A   Overcast
3:42 AM 35.6 °F 25.9 °F 28.4 °F 75% 29.75 in 10.0 mi NW 16.1 mph 25.3 mph N/A   Overcast
4:02 AM 35.6 °F 25.9 °F 30.2 °F 81% 29.75 in 10.0 mi NW 16.1 mph 20.7 mph N/A   Overcast
4:22 AM 35.6 °F 25.9 °F 30.2 °F 81% 29.75 in 10.0 mi NW 16.1 mph - N/A   Overcast
4:42 AM 35.6 °F 25.2 °F 30.2 °F 81% 29.75 in 10.0 mi NW 18.4 mph 21.9 mph N/A   Overcast
5:02 AM 35.6 °F 24.8 °F 30.2 °F 81% 29.76 in 10.0 mi NW 19.6 mph 23.0 mph N/A   Overcast
5:22 AM 35.6 °F 26.2 °F 30.2 °F 81% 29.76 in 10.0 mi NW 15.0 mph 20.7 mph N/A   Overcast
5:42 AM 35.6 °F 27.5 °F 30.2 °F 81% 29.76 in 10.0 mi NW 11.5 mph 21.9 mph N/A   Overcast
6:02 AM 35.6 °F 27.1 °F 30.2 °F 81% 29.77 in 10.0 mi NW 12.7 mph 20.7 mph N/A   Overcast
6:22 AM 35.6 °F 26.6 °F 30.2 °F 81% 29.77 in 10.0 mi NW 13.8 mph 25.3 mph N/A   Overcast
6:42 AM 35.6 °F 25.2 °F 30.2 °F 81% 29.77 in 10.0 mi NW 18.4 mph 24.2 mph N/A   Overcast
7:02 AM 35.6 °F 25.5 °F 30.2 °F 81% 29.77 in 10.0 mi NW 17.3 mph 23.0 mph N/A   Overcast
7:22 AM 35.6 °F 25.5 °F 30.2 °F 81% 29.78 in 10.0 mi NW 17.3 mph 20.7 mph N/A   Overcast
7:42 AM 35.6 °F 25.5 °F 30.2 °F 81% 29.78 in 10.0 mi NW 17.3 mph - N/A   Overcast
8:02 AM 35.6 °F 26.2 °F 30.2 °F 81% 29.78 in 10.0 mi NW 15.0 mph - N/A   Overcast
8:22 AM 35.6 °F 26.2 °F 30.2 °F 81% 29.79 in 10.0 mi NW 15.0 mph 20.7 mph N/A   Overcast
8:42 AM 35.6 °F 25.9 °F 30.2 °F 81% 29.79 in 10.0 mi NW 16.1 mph 23.0 mph N/A   Overcast
9:02 AM 35.6 °F 26.6 °F 30.2 °F 81% 29.80 in 10.0 mi NW 13.8 mph 21.9 mph N/A   Overcast
9:22 AM 35.6 °F 26.2 °F 30.2 °F 81% 29.80 in 10.0 mi NW 15.0 mph 20.7 mph N/A   Overcast
9:42 AM 37.4 °F 27.8 °F 30.2 °F 75% 29.81 in 10.0 mi NW 17.3 mph 23.0 mph N/A   Overcast
10:02 AM 37.4 °F 27.8 °F 30.2 °F 75% 29.82 in 10.0 mi WNW 17.3 mph 24.2 mph N/A   Overcast
10:22 AM 37.4 °F 27.2 °F 30.2 °F 75% 29.83 in 10.0 mi NW 19.6 mph 24.2 mph N/A   Overcast
10:42 AM 37.4 °F 27.5 °F 30.2 °F 75% 29.84 in 10.0 mi NW 18.4 mph - N/A   Overcast
11:02 AM 37.4 °F 28.2 °F 30.2 °F 75% 29.84 in 10.0 mi WNW 16.1 mph 25.3 mph N/A   Overcast
11:22 AM 37.4 °F 28.2 °F 30.2 °F 75% 29.85 in 10.0 mi NW 16.1 mph 19.6 mph N/A   Overcast
11:42 AM 37.4 °F 28.2 °F 30.2 °F 75% 29.85 in 10.0 mi NW 16.1 mph 21.9 mph N/A   Overcast
12:02 PM 37.4 °F 28.2 °F 32.0 °F 81% 29.85 in 10.0 mi NW 16.1 mph - N/A   Overcast
12:22 PM 39.2 °F 30.2 °F 32.0 °F 75% 29.86 in 10.0 mi NW 17.3 mph 21.9 mph N/A   Overcast
12:42 PM 39.2 °F 30.2 °F 30.2 °F 70% 29.86 in 10.0 mi NW 17.3 mph - N/A   Overcast
1:02 PM 39.2 °F 31.2 °F 30.2 °F 70% 29.86 in 10.0 mi NW 13.8 mph - N/A   Overcast
1:22 PM 41.0 °F 33.9 °F 32.0 °F 70% 29.87 in 10.0 mi WNW 12.7 mph 19.6 mph N/A   Overcast
1:42 PM 41.0 °F 32.5 °F 32.0 °F 70% 29.87 in 10.0 mi NW 17.3 mph 21.9 mph N/A   Overcast
2:02 PM 41.0 °F 32.5 °F 32.0 °F 70% 29.87 in 10.0 mi NW 17.3 mph 23.0 mph N/A   Overcast
2:22 PM 41.0 °F 32.2 °F 32.0 °F 70% 29.88 in 10.0 mi NW 18.4 mph 21.9 mph N/A   Overcast
2:42 PM 41.0 °F 32.5 °F 32.0 °F 70% 29.88 in 10.0 mi NW 17.3 mph - N/A   Overcast
3:02 PM 41.0 °F 33.1 °F 32.0 °F 70% 29.88 in 10.0 mi NW 15.0 mph 23.0 mph N/A   Overcast
3:22 PM 41.0 °F 33.5 °F 32.0 °F 70% 29.89 in 10.0 mi NW 13.8 mph 23.0 mph N/A   Overcast
3:42 PM 41.0 °F 33.1 °F 32.0 °F 70% 29.90 in 10.0 mi NW 15.0 mph 23.0 mph N/A   Overcast
4:03 PM 41.0 °F 32.2 °F 32.0 °F 70% 29.90 in 10.0 mi NW 18.4 mph - N/A   Overcast
4:22 PM 41.0 °F 32.2 °F 32.0 °F 70% 29.91 in 10.0 mi NW 18.4 mph 25.3 mph N/A   Overcast
4:42 PM 41.0 °F 31.9 °F 32.0 °F 70% 29.91 in 10.0 mi NW 19.6 mph 25.3 mph N/A   Overcast
5:02 PM 41.0 °F 33.9 °F 32.0 °F 70% 29.91 in 10.0 mi NW 12.7 mph 20.7 mph N/A   Overcast
5:22 PM 41.0 °F 33.5 °F 30.2 °F 65% 29.92 in 10.0 mi NW 13.8 mph 20.7 mph N/A   Overcast
6:02 PM 39.2 °F 30.2 °F 30.2 °F 70% 29.92 in 10.0 mi WNW 17.3 mph - N/A   Overcast
6:28 PM 39.2 °F 32.0 °F 32.0 °F 75% 29.93 in 10.0 mi NW 11.5 mph - N/A   Overcast
6:42 PM 39.2 °F 31.2 °F 30.2 °F 70% 29.94 in 10.0 mi NW 13.8 mph - N/A   Overcast
7:02 PM 39.2 °F 32.0 °F 30.2 °F 70% 29.94 in 10.0 mi NW 11.5 mph - N/A   Overcast
7:22 PM 37.4 °F 31.4 °F 30.2 °F 75% 29.95 in 10.0 mi NW 8.1 mph - N/A   Scattered Clouds
7:42 PM 37.4 °F 31.4 °F 30.2 °F 75% 29.95 in 10.0 mi NW 8.1 mph - N/A   Clear
8:02 PM 35.6 °F 30.7 °F 30.2 °F 81% 29.97 in 10.0 mi WNW 5.8 mph - N/A   Clear
8:22 PM 35.6 °F 30.7 °F 30.2 °F 81% 29.97 in 10.0 mi WSW 5.8 mph - N/A   Clear
8:42 PM 33.8 °F 29.6 °F 28.4 °F 81% 29.98 in 10.0 mi WSW 4.6 mph - N/A   Clear
9:02 PM 33.8 °F 29.6 °F 28.4 °F 81% 29.98 in 10.0 mi SW 4.6 mph - N/A   Clear
9:22 PM 32.0 °F 27.5 °F 28.4 °F 87% 29.98 in 10.0 mi WSW 4.6 mph - N/A   Clear
9:42 PM 32.0 °F 27.5 °F 28.4 °F 87% 29.99 in 10.0 mi WSW 4.6 mph - N/A   Clear
10:02 PM 32.0 °F 28.7 °F 28.4 °F 87% 29.98 in 10.0 mi SW 3.5 mph - N/A   Clear
10:22 PM 32.0 °F - 28.4 °F 87% 29.98 in 10.0 mi Calm Calm - N/A   Clear
10:42 PM 32.0 °F 28.7 °F 28.4 °F 87% 29.98 in 10.0 mi SW 3.5 mph - N/A   Clear
11:02 PM 32.0 °F - 28.4 °F 87% 29.98 in 10.0 mi Calm Calm - N/A   Clear
11:22 PM 30.2 °F - 28.4 °F 93% 29.98 in 10.0 mi Calm Calm - N/A   Clear
11:42 PM 30.2 °F 26.7 °F 28.4 °F 93% 29.97 in 10.0 mi West 3.5 mph - N/A   Clear